Regional Weather Roundup
Issued by NWS

Home | Current Version | Previous Version | Text Only | Print | Product List | Glossary On
Versions: 1 2 3 4 5 6 7 8 9 10 11 12 13 14 15 16 17 18 19 20 21 22 23 24 25 26 27 28 29 30 31 32 33 34 35 36 37 38 39 40 41 42 43 44 45 46 47 48 49 50
000
ASUS45 KABQ 260310
RWRNM
WEATHER ROUNDUP FOR NEW MEXICO
NATIONAL WEATHER SERVICE ALBUQUERQUE NM
800 PM MST SUN JAN 25 2015

NOTE: "FAIR" MEANS FEW OR NO CLOUDS BELOW 12,000 FEET AGL WITH NO
       SIGNIFICANT WEATHER OR OBSTRUCTIONS TO VISION.

      THIS PRODUCT IS RELEASED AS TWO VERSIONS.  ONE VERSION NEAR
      THE TOP OF THE HOUR CONTAINING PRELIMINARY DATA FROM ALBUQUERQUE
      AND OTHER STATIONS.  A FINAL VERSION WITH ADDITIONAL DATA IS
      ISSUED ABOUT 10 MINUTES AFTER THE HOUR.

NMZ501-503-504-510>518-260400-
NORTHWEST PLATEAU/NORTHCENTRAL MOUNTAINS

CITY           SKY/WX    TMP DP  RH WIND       PRES   REMARKS
FARMINGTON     CLEAR     33  20  58 CALM      30.29R
LOS ALAMOS     CLEAR     43  20  40 NW8       30.31R
SANTA FE       CLEAR     32  21  64 CALM      30.27S
TAOS           PTCLDY    34  23  64 NE3       30.32R
ANGEL FIRE     FAIR      25  20  82 SW5       30.34R WCI  19

$$
NMZ402-403-502-505>509-260400-
WESTCENTRAL MOUNTAINS/SOUTHWEST MOUNTAINS

CITY           SKY/WX    TMP DP  RH WIND       PRES   REMARKS
GALLUP         CLEAR     35  24  64 CALM      30.32R
GRANTS         CLEAR     33  24  68 NW6       30.32S WCI  28
SILVER CITY    PTCLDY    36  21  55 N3        30.33R

$$
NMZ407-409-411-412-260400-
SOUTHERN DESERTS

CITY           SKY/WX    TMP DP  RH WIND       PRES   REMARKS
LORDSBURG      FAIR      41  27  56 S8        30.27R
DEMING         MOCLDY    41  29  62 N6        30.29R
LAS CRUCES     MOCLDY    40  31  70 S3        30.30R
HOLLOMAN AFB   PTCLDY    39  29  66 NE8       30.27R WCI  34
ALAMOGORDO     PTCLDY    41  25  52 N7        30.28R
T OR C         CLEAR     47  21  35 SW6       30.27R

$$
NMZ519>523-260400-
CENTRAL VALLEYS/CENTRAL HIGHLANDS

CITY           SKY/WX    TMP DP  RH WIND       PRES   REMARKS
ALBUQUERQUE    PTCLDY    44  25  47 N7        30.28S
DOUBLE EAGLE   CLEAR     36  25  64 NW7       30.29R WCI  30
MORIARTY ARPT  FAIR      32  24  72 S3        30.29S
CLINES CORNERS PTCLDY    35  21  56 NW7       30.27R WCI  29
BELEN          FAIR      36  24  61 CALM      30.29R
SOCORRO        FAIR      41  28  58 SW9       30.28R

$$
NMZ524>526-539-540-260400-
SOUTHCENTRAL MOUNTAINS

CITY           SKY/WX    TMP DP  RH WIND       PRES   REMARKS
RUIDOSO        PTCLDY    36  23  60 SW8       30.33R WCI  29

$$
NMZ527>531-260400-
NORTHEAST HIGHLANDS/NORTHEAST PLAINS

CITY           SKY/WX    TMP DP  RH WIND       PRES   REMARKS
LAS VEGAS      CLEAR     33  25  72 S7        30.28S WCI  27
RATON          CLEAR     29  23  78 N7        30.27R WCI  22
CLAYTON        CLEAR     39  28  64 W13       30.22R WCI  31

$$
NMZ532>537-260400-
EASTCENTRAL PLAINS

CITY           SKY/WX    TMP DP  RH WIND       PRES   REMARKS
TUCUMCARI      PTCLDY    40  31  70 W10       30.24R WCI  33
CANNON AFB     CLEAR     40  29  66 W8        30.27R WCI  34
CLOVIS AIRPORT CLEAR     36  28  75 W9        30.26R WCI  29

$$
NMZ028-029-538-260400-
SOUTHEAST PLAINS

CITY           SKY/WX    TMP DP  RH WIND       PRES   REMARKS
ROSWELL        CLEAR     37  30  75 SW9       30.28R WCI  30
ARTESIA        CLEAR     41  30  65 SW9       30.29R
CARLSBAD       CLEAR     39  29  67 SW8       30.27S WCI  33
HOBBS          CLEAR     41  28  60 CALM      30.31R


$$



USA.gov is the U.S. government's official web portal to all federal, state and local government web resources and services.